Skip Page Navigation
NASA JPL Caltech
NASA Logo - Jet Propulsion Laboratory + View the NASA Portal
+ Center for Near-Earth Object Studies
JPL Home Earth Solar System Stars & Galaxies Technology
JPL Solar System Dynamics
BODIES ORBITS EPHEMERIDES TOOLS PHYSICAL DATA DISCOVERY FAQ SITE MAP
JPL Small-Body Database Browser
Search: [ help ]  
58602 (1997 TG25)
Classification: Main-belt Asteroid          SPK-ID: 2058602
Ephemeris | Orbit Diagram | Orbital Elements | Mission Design | Physical Parameters | Discovery Circumstances | Close-Approach Data ]

[ show orbit diagram ]
Orbital Elements at Epoch 2459200.5 (2020-Dec-17.0) TDB
Reference: JPL 26 (heliocentric ecliptic J2000)
 Element Value Uncertainty (1-sigma)   Units 
e .1917789394850645 4.0955e-08  
a 2.376878989192898 6.9304e-09 au
q 1.921043657361152 9.7135e-08 au
i .664971755484112 4.4151e-06 deg
node 325.9828325017374 0.00033124 deg
peri 58.51635210985199 0.0003314 deg
M 119.0728344931844 9.1293e-06 deg
tp 2458757.790108488143
(2019-Oct-01.29010849)
3.3911e-05 TDB
period 1338.471210689042
3.66
5.8539e-06
1.603e-08
d
yr
n .268963573609232 1.1763e-09 deg/d
Q 2.832714321024645 8.2594e-09 au
  Orbit Determination Parameters
   # obs. used (total)      857  
   data-arc span      8561 days (23.44 yr)  
   first obs. used      1997-10-06  
   last obs. used      2021-03-15  
   planetary ephem.      DE441  
   SB-pert. ephem.      SB441-N16  
   condition code      0  
   norm. resid. RMS      .50784  
   source      ORB  
   producer      Otto Matic  
   solution date      2021-Apr-13 11:31:08  

Additional Information
 Earth MOID = .923606 au 
 Jupiter MOID = 2.62377 au 
 T_jup = 3.516 
[ hide covariance matrix ]
Orbital Elements at Epoch 2457124.5 (2015-Apr-12.0) TDB
Reference: JPL 26 (heliocentric ecliptic J2000)
 Element Value Uncertainty (1-sigma)   Units 
e .1924709292303391 4.1272e-08  
q 1.919139704419823 9.8011e-08 au
tp 2457416.908834593487
(2016-Jan-29.40883459)
3.3982e-05 TDB
node 326.4041148494738 0.00032954 deg
peri 57.5991811999976 0.00032969 deg
i .666901506088132 4.4265e-06 deg
  Orbit Determination Parameters
   # obs. used (total)      857  
   data-arc span      8561 days (23.44 yr)  
   first obs. used      1997-10-06  
   last obs. used      2021-03-15  
   planetary ephem.      DE441  
   SB-pert. ephem.      SB441-N16  
   condition code      0  
   norm. resid. RMS      .50784  
   source      ORB  
   producer      Otto Matic  
   solution date      2021-Apr-13 11:31:08  

Additional Information
 Jupiter MOID = 2.62377 au 
 T_jup = 3.516 
Orbit Covariance (6×6)
  e q tp node peri i
e 1.70341215830425E-15 -4.038733711777402E-15 -4.083567747452042E-13 -7.109782834215481E-15 -1.457363432714734E-13 -8.14998794205622E-16
q -4.038733711777402E-15 9.606237765299192E-15 9.432825175164152E-13 1.731408699394535E-14 3.363458095467493E-13 1.963577597330069E-15
tp -4.083567747452042E-13 9.432825175164152E-13 1.15479715521775E-9 -1.298830778774016E-12 3.607245085773831E-10 2.028188127744147E-13
node -7.109782834215481E-15 1.731408699394535E-14 -1.298830778774016E-12 1.085936397776637E-7 -1.085858165513915E-7 4.83090686025878E-10
peri -1.457363432714734E-13 3.363458095467493E-13 3.607245085773831E-10 -1.085858165513915E-7 1.086982682701642E-7 -4.829939513964217E-10
i -8.14998794205622E-16 1.963577597330069E-15 2.028188127744147E-13 4.83090686025878E-10 -4.829939513964217E-10 1.959356833558787E-11

Ephemeris | Orbit Diagram | Orbital Elements | Mission Design | Physical Parameters | Discovery Circumstances | Close-Approach Data ]

Physical Parameter Table
Parameter Symbol Value Units Sigma Reference Notes
absolute magnitude H 16.1   n/a MPO347912  

58602 (1997 TG25)          Discovered 1997-Oct-11 by Sarounova, L. at Ondrejov
Reference: 20030614/Numbers.arcLast Updated: 2004-04-19

[ show close-approach data ]
Ephemeris | Orbit Diagram | Orbital Elements | Mission Design | Physical Parameters | Discovery Circumstances | Close-Approach Data ]
ABOUT SSD CREDITS/AWARDS PRIVACY/COPYRIGHT GLOSSARY LINKS
FirstGov 2021-Apr-18 02:37 UT
(server date/time)  
NASA Home Page
Site Manager:   Ryan S. Park
Webmaster  Alan B. Chamberlin